Zurück zum Katalog

STARLINK-31543

AktivKommunikationVLEO
NORAD 59402·PAYLOAD·🇺🇸 United States

Gestartet Apr 5, 2024 von Cape Canaveral Space Force Station

Loading…

Nächste Überflüge (nächste 24 Stunden)

TLE

AktuellSource: CelesTrak SupGP

Epoche: Sep 15, 2026, 02:48 UTC

1 59402C 24064E   26258.11715278 -.00022517  00000+0 -81548-3 0  2586
2 59402  43.0030  66.5911 0001171 267.0069 101.5381 15.27592572    15

Verfolge STARLINK-31543 in Echtzeit mit AllMySat

Download on the App Store